Regional Weather Roundup
Issued by NWS

Home | Current Version | Previous Version | Graphics & Text | Print | Product List | Glossary On
Versions: 1 2 3 4 5 6 7 8 9 10 11 12 13 14 15 16 17 18 19 20 21 22 23 24 25 26 27 28 29 30 31 32 33 34 35 36 37 38 39 40 41 42 43 44 45 46 47 48 49
000
ASUS45 KBOI 040910
RWRID
WEATHER ROUNDUP FOR IDAHO
NATIONAL WEATHER SERVICE BOISE ID
200 AM MST WED MAR 04 2015

NOTE: "FAIR" INDICATES FEW OR NO CLOUDS BELOW 12000 FEET
WITH NO SIGNIFICANT WEATHER AND/OR OBSTRUCTIONS TO VISIBILITY

IDZ012-014-041000-
SOUTHWEST IDAHO


CITY           SKY/WX    TMP DP  RH WIND       PRES   REMARKS
BOISE          CLEAR     26  14  60 CALM      30.15R
CALDWELL       CLEAR     27  10  50 NW12      30.18S WCI  16
MOUNTAIN HOME  CLEAR     25  12  56 NW10      30.14R WCI  15
$$

IDZ016-017-041000-
SOUTHCENTRAL IDAHO


CITY           SKY/WX    TMP DP  RH WIND       PRES   REMARKS
BURLEY         CLEAR     28  12  51 W13       30.04R WCI  17
JEROME         CLEAR     25  11  55 W13       30.06R WCI  14
TWIN FALLS     CLEAR     28  12  51 SW21      30.06R WCI  15
$$

IDZ019>023-041000-
SOUTHEAST IDAHO


CITY           SKY/WX    TMP DP  RH WIND       PRES   REMARKS
IDAHO FALLS    MOCLDY    18  11  74 N7        30.05R WCI   9
POCATELLO      CLEAR     21  17  84 SW6       30.06R WCI  13
REXBURG        CLEAR     11   5  77 NE5       30.05R WCI   3
$$

IDZ006-010-011-018-031-032-041000-
CENTRAL IDAHO MOUNTAINS


CITY           SKY/WX    TMP DP  RH WIND       PRES   REMARKS
MCCALL         CLEAR     18   9  68 N7        30.08R WCI   9
HAILEY         CLEAR     21  12  68 NW8       30.01R WCI  12
STANLEY          N/A      5  -5  63 CALM      30.03R
SALMON         MOCLDY    18   7  62 SE3       30.13R
CHALLIS        CLEAR     19   4  51 N10       30.07R WCI   7
$$

IDZ002-004-006-007-026-041000-
NORTHERN IDAHO


CITY           SKY/WX    TMP DP  RH WIND       PRES   REMARKS
LEWISTON       CLEAR     30  17  58 CALM      30.26R
LOWELL           N/A     24  21  88 CALM      30.31R
COEUR D`ALENE  CLEAR     25  16  68 S7        30.19R WCI  17
MULLAN PASS    CLEAR     13   4  67 SW6       30.01R WCI   4
$$



USA.gov is the U.S. government's official web portal to all federal, state and local government web resources and services.